Flag for Niger Weather past 2 weeks in Niamey, Niger

Now
97 °F

Extremely hot.


Feels Like: 107 °F
Forecast: 76 / 89 °F
Wind: N/A

Location: Niamey-Aero

Current Time: Sep 3, 2015 at 7:05:06 PM

Latest Report: Sep 3, 2015 at 6:00 PM


Visibility: N/A

Pressure: 29.89 "Hg

Humidity: 47%

Dew point: 73 °F

Location of NiameyLocation

Historic Weather in Niamey — Graph

°F

Niamey temperature yesterday

Maximum temperature yesterday: 91 °F (at 2:00 PM)
Minimum temperature yesterday: 77 °F (at 2:00 AM)
Average temperature yesterday: 84 °F

Past Weeks' High & Low Weather Summary

 TemperatureHumidityPressure
High99 °F (Aug 24, 2:00 PM)100% (Aug 26, 11:00 AM)30.04 "Hg (Aug 26, 11:00 AM)
Low72 °F (Aug 29, 2:00 AM)30% (Aug 23, 4:00 PM)29.77 "Hg (Aug 23, 5:00 PM)
Average83 °F70%29.89 "Hg
* Reported Aug 19 5:00 PM — Sep 3 5:00 PM, Niamey, Weather by CustomWeather, © 2015

Note: Actual official high and low records may vary slightly from our data, if they occured in-between our weather recording intervals... More about our weather records

Advertising

Niamey weather history for previous 24 hours

 ConditionsComfort  
Time TempWeatherWind HumidityBarometerVisibility
5:00 PM
Thu, Sep 3
79 °FScattered clouds.No wind84%29.89 "HgN/A
4:00 PM79 °FPartly sunny.No wind84%29.89 "HgN/A
3:00 PM77 °FScattered clouds.2 mph89%29.89 "HgN/A
11:00 AM73 °FThunderstorms. Scattered clouds.8 mph100%30.04 "Hg1 mi
10:00 AM73 °FStrong thunderstorms. Broken clouds.15 mph100%30.01 "Hg1 mi
9:00 AM82 °FPartly sunny.14 mph70%29.98 "Hg4 mi
8:00 AM81 °FPassing clouds.9 mph79%29.92 "HgN/A
7:00 AM81 °FPassing clouds.6 mph79%29.92 "HgN/A
6:00 AM81 °FPassing clouds.6 mph74%29.89 "HgN/A
5:00 AM82 °FPassing clouds.8 mph70%29.89 "HgN/A
4:00 AM82 °FClear.7 mph70%29.89 "Hg10 mi
3:00 AM82 °FClear.8 mph70%29.92 "Hg10 mi
2:00 AM82 °FClear.7 mph70%29.92 "Hg10 mi
1:00 AM84 °FClear.7 mph66%29.95 "Hg10 mi
12:00 AM84 °FClear.6 mph66%29.95 "Hg10 mi
11:00 PM
Wed, Sep 2
84 °FClear.6 mph66%29.95 "Hg10 mi
10:00 PM86 °FClear.6 mph59%29.92 "Hg10 mi
9:00 PM86 °FClear.5 mph59%29.92 "Hg10 mi
8:00 PM88 °FPassing clouds.6 mph55%29.89 "HgN/A
7:00 PM90 °FPassing clouds.7 mph49%29.89 "HgN/A
Weather by CustomWeather, © 2015

See weather overviewHow to use our weather pages